SCP
0 0 0 0 0 0 0 0 0 0 0 0 0 1 1 1 1 2 3 3 2 2 2 1 1 1 1 1 2 2 1 1 1 1 1 1 1 1 1 1 1 1 1 1
0 0 0 0 0 0 0 0 0 0 0 0 0 0 1 1 1 2 3 3 2 2 2 1 1 1 1 2 2 2 1 1 1 1 1 1 1 1 1 1 1 1 1 1
0 0 0 0 0 0 0 0 0 0 0 0 0 0 0 1 1 1 2 2 2 3 2 1 1 1 1 2 2 2 2 1 1 1 1 1 1 1 1 1 1 1 1 1
0 0 0 0 0 0 0 0 0 0 0 0 0 0 0 0 1 1 1 1 2 3 3 2 1 1 1 2 3 2 2 1 1 1 1 2 2 1 1 1 0 0 0 0
0 0 0 0 0 0 0 0 0 0 0 0 0 0 0 0 0 1 1 1 2 3 3 2 1 1 1 2 3 3 2 1 1 1 2 2 2 2 1 1 0 0 0 0
0 0 0 0 0 0 0 0 0 0 0 0 0 0 0 0 0 0 1 1 1 2 3 2 1 1 1 2 3 3 2 1 1 2 2 2 2 2 1 1 1 1 1 1
0 0 0 0 0 0 0 0 0 0 0 0 0 0 0 0 0 0 1 1 1 2 2 2 2 2 2 2 2 2 2 1 1 1 2 2 2 2 1 1 1 1 1 1
0 0 0 0 0 0 0 0 0 0 0 0 0 0 0 0 0 1 1 1 1 2 2 2 2 2 3 2 2 2 2 1 1 1 2 2 2 2 1 1 1 1 1 1
0 0 0 0 0 0 0 0 0 0 0 0 0 0 1 1 1 1 1 1 1 2 2 2 2 3 3 3 2 2 2 1 1 1 1 1 2 1 1 1 1 1 2 2
0 0 0 0 0 0 0 0 0 0 0 0 0 0 1 1 1 1 1 1 1 1 2 2 2 2 2 2 2 2 2 2 1 1 1 1 1 1 1 1 1 1 2 2
0 0 0 0 0 0 0 0 0 0 0 0 0 0 0 1 1 1 1 1 1 1 2 2 2 2 2 2 2 2 2 2 2 2 1 1 1 1 1 1 1 1 2 2
0 0 0 0 0 0 0 0 0 0 0 0 0 0 0 1 1 1 1 1 1 1 2 2 3 3 2 2 3 3 2 2 2 2 2 1 1 1 1 1 1 1 1 2
0 0 0 0 0 0 0 0 0 0 0 0 0 0 0 1 1 2 2 1 2 2 3 3 3 3 3 3 3 3 3 3 2 2 1 1 1 1 1 1 1 1 1 1
0 0 0 0 0 1 1 0 0 0 0 0 0 0 0 1 2 2 2 2 2 3 3 3 3 3 3 3 3 3 3 3 2 2 1 1 1 1 1 1 1 1 1 1
0 0 0 1 1 1 1 1 0 0 0 0 0 0 0 1 2 2 2 2 3 3 3 3 3 3 3 3 3 3 3 2 2 2 1 1 2 2 2 2 1 1 1 1
0 0 1 1 1 1 1 1 1 1 1 1 0 0 0 1 2 2 2 3 4 4 4 4 3 3 2 2 2 2 2 2 2 2 2 2 2 2 3 3 2 1 1 1
0 0 0 1 1 1 1 1 1 1 1 0 0 0 1 1 1 2 2 3 4 5 5 4 3 2 2 1 1 2 2 2 2 2 2 2 2 3 3 2 2 1 1 1
0 0 0 0 0 0 1 1 1 1 0 0 0 1 1 1 2 2 2 3 4 5 4 4 3 2 2 1 1 2 2 2 2 2 2 3 3 3 2 2 1 1 1 1
0 0 0 0 0 1 1 1 1 1 0 0 1 1 2 2 2 2 3 4 4 4 4 3 2 2 1 1 1 2 2 2 2 2 3 3 3 2 2 1 1 1 1 1
0 0 0 0 0 1 1 0 0 1 1 1 1 3 3 3 2 2 3 4 4 3 3 2 2 2 2 2 2 2 2 2 2 3 4 4 3 2 1 1 1 1 1 1
0 0 0 0 0 0 0 0 0 0 0 1 2 3 3 2 2 2 3 3 3 3 2 2 2 2 3 3 3 3 3 3 3 3 4 4 2 1 1 1 1 1 1 1
0 0 0 0 0 0 0 0 0 0 0 1 2 2 2 2 2 2 2 2 2 2 2 2 2 3 4 5 5 5 4 3 3 3 3 2 2 1 1 1 1 1 1 1
0 0 0 0 0 0 0 0 0 0 0 0 1 2 2 2 2 2 2 2 2 2 2 3 4 4 5 6 6 5 3 2 2 2 2 2 1 1 1 0 0 1 1 1
0 0 0 0 0 0 0 0 0 0 0 1 1 2 2 2 1 1 2 2 2 2 2 3 4 5 5 5 5 3 2 2 2 2 2 2 1 1 0 0 0 0 0 1
0 0 0 0 0 0 0 1 1 1 1 1 1 1 1 1 1 1 1 2 2 2 2 2 3 3 3 4 4 3 3 3 3 3 2 2 1 1 1 0 0 0 0 0
0 0 0 0 0 0 0 1 1 1 1 1 1 1 1 1 1 1 1 1 1 2 3 3 2 2 2 3 4 4 3 3 3 3 3 2 1 1 1 1 1 0 0 0
Wind_Speed
2 3 2 5 5 4 2 2 3 3 2 2 2 2 3 3 3 4 4 5 5 4 3 2 2 3 3 2 3 3 3 2 2 2 2 2 2 2 2 2 3 3 3 3
3 3 6 3 2 2 2 1 2 2 1 2 1 2 2 3 5 5 6 6 6 4 2 2 3 3 3 3 3 2 2 2 2 2 2 2 2 1 1 2 3 3 3 3
4 6 2 2 2 2 2 4 4 3 2 3 2 4 2 2 2 2 3 5 5 7 6 4 4 3 3 3 3 3 2 2 2 3 2 3 3 2 2 3 2 3 3 3
4 4 2 2 3 4 4 5 4 3 2 2 1 2 5 3 3 3 4 5 6 6 6 5 5 4 4 4 3 3 3 3 3 3 3 3 2 1 1 0 1 2 3 3
5 2 2 3 5 5 4 2 3 2 3 1 2 1 7 1 3 6 6 7 7 7 7 7 6 5 4 4 4 3 3 3 2 3 3 3 2 1 1 1 2 3 3 3
6 3 4 5 2 4 4 6 6 5 4 1 2 2 6 4 6 5 5 6 7 7 7 6 4 4 4 4 4 4 3 2 2 3 3 3 3 2 2 2 2 2 2 2
4 4 2 2 2 2 5 6 4 4 3 4 2 2 9 7 5 5 6 6 6 6 7 7 6 5 5 5 4 4 4 3 2 3 3 3 3 3 2 1 1 1 1 1
1 6 3 2 5 5 4 8 7 4 4 4 2 4 8 4 2 2 3 4 5 6 6 7 7 6 6 5 5 4 4 3 3 3 3 2 3 2 1 1 1 1 0 0
5 6 4 2 2 8 5 3 5 7 2 1 4 6 8 2 1 1 2 4 5 6 7 7 7 6 6 5 5 5 5 3 3 3 3 2 2 2 2 1 1 1 0 1
7 4 4 2 4 4 5 8 6 6 5 2 4 4 5 4 4 2 3 3 4 5 6 7 7 7 6 5 4 4 5 4 3 3 3 2 2 2 2 2 1 1 1 1
5 4 4 3 2 3 4 4 5 5 5 6 3 7 6 7 6 6 6 4 4 6 6 6 6 6 6 5 5 4 4 4 3 2 2 2 2 2 2 1 1 1 1 1
4 5 1 4 3 1 4 5 7 5 3 4 4 8 4 4 4 4 4 3 3 4 5 5 5 6 6 5 5 4 4 4 3 3 3 2 2 2 2 1 1 1 1 1
5 6 2 6 5 3 2 2 3 5 5 5 4 8 4 1 1 2 3 3 3 4 4 5 5 5 5 5 5 5 4 4 3 3 3 2 2 2 1 1 0 1 1 1
6 5 6 8 7 3 1 1 4 5 4 4 6 7 5 3 1 1 2 3 4 4 4 5 5 5 5 5 4 4 4 4 4 4 3 2 2 2 2 1 1 1 1 1
5 4 3 3 3 3 3 3 4 5 6 7 6 6 7 5 4 3 3 3 4 4 4 5 5 4 4 4 4 4 4 3 4 4 3 3 2 2 1 1 1 1 1 0
3 3 2 0 1 2 1 2 3 3 3 4 2 5 4 1 2 2 3 5 5 5 5 5 5 5 5 5 5 4 4 3 3 4 3 2 2 1 1 1 1 1 1 0
2 4 3 2 2 1 2 3 3 2 2 3 4 5 0 1 2 4 5 5 6 6 5 5 5 5 5 5 5 5 4 4 4 4 3 3 2 2 1 1 1 1 1 1
5 4 3 2 2 4 7 2 2 3 1 1 2 2 1 2 2 1 2 4 4 4 4 4 4 4 4 4 4 4 4 4 4 3 2 2 2 2 1 1 1 1 1 1
4 7 4 3 3 4 5 2 2 3 2 1 1 1 2 2 3 2 1 1 3 4 4 4 4 4 3 4 4 4 4 3 3 3 2 2 2 2 2 1 1 1 1 1
5 5 6 4 3 6 6 3 1 3 3 1 1 2 1 2 1 3 1 0 1 2 2 3 4 4 4 3 4 5 4 3 3 3 2 2 2 2 2 2 1 1 1 1
3 4 3 3 3 6 5 5 1 4 6 3 2 3 3 2 3 2 0 1 2 2 3 4 4 4 4 4 5 5 4 3 2 2 2 2 1 1 2 1 1 1 1 1
3 3 3 4 3 6 4 2 3 4 2 0 1 2 2 1 1 1 1 2 2 3 3 4 4 3 3 4 5 5 3 2 2 3 2 2 1 1 2 2 1 1 1 1
3 5 5 6 6 4 2 1 2 1 0 1 1 1 2 2 1 1 1 1 1 2 2 3 4 4 2 3 4 4 2 2 2 3 2 1 2 1 1 2 1 1 1 0
1 1 2 2 3 3 2 2 1 0 1 1 2 2 3 2 2 1 1 1 1 2 2 2 4 4 2 2 3 3 2 2 3 2 2 1 2 1 1 1 1 1 1 1
3 1 1 2 3 3 3 1 1 2 2 3 2 2 3 4 2 2 1 1 1 2 2 3 3 3 2 3 3 3 3 3 3 2 1 1 1 1 0 0 1 1 2 2
4 5 4 5 5 4 4 3 1 1 1 2 3 2 2 3 3 2 1 1 2 2 2 2 2 2 2 3 3 2 2 3 3 2 1 1 1 1 1 0 1 2 1 1
Wind_Direction
85 82 214 226 207 204 186 191 249 254 198 139 196 244 246 201 181 189 186 183 185 195 189 156 152 138 117 105 109 115 111 99 101 98 94 84 62 41 40 41 47 58 66 78
41 268 238 221 185 156 155 189 262 299 93 124 169 279 252 206 203 200 190 191 188 177 167 173 169 153 148 145 143 138 136 128 124 115 113 113 106 75 64 42 42 48 63 75
196 242 199 153 160 158 223 200 217 219 25 43 59 331 284 246 224 220 196 191 186 185 188 188 181 178 160 161 163 160 155 140 122 109 95 83 62 49 43 38 30 28 53 61
241 255 194 199 219 176 246 226 193 165 108 321 70 298 286 247 251 229 209 193 193 193 190 189 184 181 177 174 152 143 144 136 125 122 121 122 115 103 51 44 36 30 42 52
249 226 202 232 230 179 213 122 116 116 124 48 15 177 285 297 254 245 220 205 199 194 192 192 188 184 169 152 142 140 133 124 124 124 132 125 111 106 78 63 57 40 32 39
248 239 204 215 216 156 129 74 60 50 70 13 257 183 279 242 223 231 216 206 196 192 191 186 174 154 146 138 138 138 136 127 120 122 127 128 126 116 95 67 58 39 24 24
308 300 248 163 96 58 93 90 42 6 12 259 259 204 253 253 231 213 210 207 197 185 180 174 170 166 159 152 152 147 147 144 137 134 136 139 140 136 137 135 115 81 38 20
225 290 265 189 173 173 165 140 155 191 220 275 312 242 258 272 261 213 191 187 179 179 177 177 178 171 165 158 153 154 157 156 153 150 147 137 138 137 134 131 134 144 129 5
183 253 280 242 182 141 140 160 155 127 132 320 289 289 305 338 360 114 152 158 177 182 174 174 170 165 165 163 165 165 155 148 154 154 139 129 134 139 135 122 111 105 58 53
165 231 291 299 79 45 127 140 105 116 142 232 292 284 262 269 253 219 188 193 196 180 169 168 166 166 170 169 162 155 150 151 142 139 148 144 142 149 146 126 109 89 49 45
143 167 309 15 133 177 104 97 104 112 146 155 229 268 232 224 217 207 210 203 191 177 172 171 165 164 162 152 150 148 145 137 135 142 129 108 97 97 106 106 114 126 116 114
147 127 236 273 275 206 149 156 145 148 196 168 178 262 284 230 209 186 197 190 173 167 159 159 157 155 157 157 155 157 156 150 149 143 126 114 105 92 88 111 167 146 121 101
136 115 77 343 342 8 79 125 137 122 118 150 173 261 322 16 118 160 171 169 164 153 143 146 148 157 160 161 162 157 155 154 148 139 132 128 119 115 138 204 159 128 129 106
118 119 161 194 216 207 206 176 149 127 143 191 218 249 299 307 256 216 169 166 160 158 154 153 158 163 160 156 155 152 155 158 153 138 148 158 170 177 184 167 129 116 128 135
103 143 190 218 223 175 202 208 177 178 183 186 225 227 251 241 220 206 171 151 151 159 163 165 164 162 156 150 152 155 159 162 155 151 171 190 186 176 160 144 141 125 127 163
75 132 130 301 270 176 231 260 197 200 197 215 236 258 261 235 134 144 159 161 172 181 178 171 161 159 165 165 166 168 170 168 158 168 188 190 174 172 178 170 152 145 153 188
90 118 117 230 294 71 253 248 201 203 215 188 215 245 246 131 173 190 190 186 188 188 177 171 172 177 180 178 173 174 179 165 165 177 187 187 183 184 190 168 145 184 216 210
130 109 121 139 107 217 239 251 187 174 218 205 230 263 234 214 218 201 180 186 193 180 173 174 175 176 177 169 164 161 156 158 167 171 180 190 184 187 180 166 194 225 217 210
139 132 119 124 167 262 291 268 167 173 249 255 190 10 39 66 51 1 329 189 188 180 175 173 172 164 153 161 159 146 142 145 152 163 176 192 185 183 178 193 217 220 204 227
62 91 112 126 158 221 243 285 264 130 262 279 157 162 133 92 98 266 304 71 119 116 131 141 139 135 145 151 146 143 148 153 178 187 184 172 164 172 185 202 203 196 177 221
45 53 109 149 199 254 268 303 78 156 242 259 196 187 171 189 216 236 162 112 123 112 119 130 136 143 150 147 139 145 153 178 192 154 128 114 122 149 157 158 164 164 147 101
162 145 166 145 186 255 326 35 149 226 281 237 185 180 158 164 67 63 96 119 112 96 100 116 122 119 121 135 138 135 153 181 140 122 113 105 92 93 103 117 107 105 110 97
183 186 186 185 207 247 294 247 265 212 178 218 169 165 137 124 95 47 52 83 98 108 106 114 125 118 109 125 135 139 154 117 110 111 116 107 84 81 88 114 128 130 126 170
276 123 135 253 270 283 288 296 327 30 165 166 148 146 136 135 132 90 84 79 76 86 98 108 113 115 117 115 113 127 125 118 104 108 114 108 105 80 72 84 151 169 192 212
228 158 134 269 285 319 311 304 342 31 63 88 86 99 123 119 109 101 90 90 87 81 95 120 124 131 147 137 121 118 124 121 119 115 109 116 124 137 116 43 236 222 219 202
205 179 176 224 228 209 252 274 312 84 81 107 104 81 91 113 125 111 101 109 105 101 96 111 123 129 153 138 131 135 140 138 137 136 138 133 150 177 185 204 335 346 328 345